Time,TemperatureF,DewpointF,PressureIn,WindDirection,WindDirectionDegrees,WindSpeedMPH,WindSpeedGustMPH,Humidity,HourlyPrecipIn,Conditions,Clouds,dailyrainin,SoftwareType,DateUTC
2013-01-03 00:15:00,37.1,36.0,30.01,SSE,155,0.0,0.0,96,0.00,,,0.00,weatherlink.com 1.10,2013-01-03 05:15:00,
2013-01-03 00:30:00,37.1,36.0,30.01,SSE,155,0.0,0.0,96,0.00,,,0.00,weatherlink.com 1.10,2013-01-03 05:30:00,
2013-01-03 00:45:00,37.1,36.0,30.01,SSE,155,0.0,0.0,96,0.00,,,0.00,weatherlink.com 1.10,2013-01-03 05:45:00,
2013-01-03 01:00:00,37.0,36.0,30.01,SSE,155,0.0,0.0,96,0.00,,,0.00,weatherlink.com 1.10,2013-01-03 06:00:00,
2013-01-03 01:15:00,37.0,36.0,30.02,SSE,155,0.0,0.0,96,0.00,,,0.00,weatherlink.com 1.10,2013-01-03 06:15:00,
2013-01-03 01:30:00,37.0,36.0,30.02,SSE,155,0.0,0.0,97,0.00,,,0.00,weatherlink.com 1.10,2013-01-03 06:30:00,
2013-01-03 01:45:00,37.1,36.0,30.02,SSE,155,0.0,0.0,97,0.00,,,0.00,weatherlink.com 1.10,2013-01-03 06:45:00,
2013-01-03 02:00:00,37.1,36.0,30.01,SSE,155,0.0,3.0,97,0.00,,,0.00,weatherlink.com 1.10,2013-01-03 07:00:00,
2013-01-03 02:15:00,36.8,36.0,30.02,SSE,155,0.0,3.0,97,0.00,,,0.00,weatherlink.com 1.10,2013-01-03 07:15:00,
2013-01-03 02:31:00,35.9,35.0,30.02,SSE,155,0.0,1.0,96,0.00,,,0.00,weatherlink.com 1.10,2013-01-03 07:31:00,
2013-01-03 02:46:00,34.7,34.0,30.01,SSE,155,0.0,0.0,96,0.00,,,0.00,weatherlink.com 1.10,2013-01-03 07:46:00,
2013-01-03 03:01:00,34.2,33.0,30.00,SSE,155,0.0,0.0,96,0.00,,,0.00,weatherlink.com 1.10,2013-01-03 08:01:00,
2013-01-03 03:16:00,33.8,33.0,30.01,SSE,155,0.0,0.0,96,0.00,,,0.00,weatherlink.com 1.10,2013-01-03 08:16:00,
2013-01-03 03:31:00,33.9,33.0,30.02,SSE,155,0.0,0.0,97,0.00,,,0.00,weatherlink.com 1.10,2013-01-03 08:31:00,
2013-01-03 03:46:00,33.5,33.0,30.02,SSE,155,0.0,1.0,97,0.00,,,0.00,weatherlink.com 1.10,2013-01-03 08:46:00,
2013-01-03 04:01:00,33.2,33.0,30.01,SSE,155,0.0,0.0,97,0.00,,,0.00,weatherlink.com 1.10,2013-01-03 09:01:00,
2013-01-03 04:16:00,33.0,32.0,30.01,SSE,155,0.0,0.0,97,0.00,,,0.00,weatherlink.com 1.10,2013-01-03 09:16:00,
2013-01-03 04:31:00,32.8,32.0,30.00,SSE,155,0.0,0.0,97,0.00,,,0.00,weatherlink.com 1.10,2013-01-03 09:31:00,
2013-01-03 04:46:00,32.5,32.0,30.00,SSE,155,0.0,0.0,97,0.00,,,0.00,weatherlink.com 1.10,2013-01-03 09:46:00,
2013-01-03 05:01:00,32.5,32.0,30.01,SSE,155,0.0,0.0,97,0.00,,,0.00,weatherlink.com 1.10,2013-01-03 10:01:00,
2013-01-03 05:16:00,32.8,32.0,30.01,SSE,155,0.0,0.0,97,0.00,,,0.00,weatherlink.com 1.10,2013-01-03 10:16:00,
2013-01-03 05:31:00,33.5,33.0,30.01,SSE,155,0.0,0.0,97,0.00,,,0.00,weatherlink.com 1.10,2013-01-03 10:31:00,
2013-01-03 05:46:00,32.3,32.0,30.01,SSE,155,0.0,0.0,97,0.00,,,0.00,weatherlink.com 1.10,2013-01-03 10:46:00,
2013-01-03 06:01:00,32.7,32.0,30.02,SSE,155,0.0,0.0,97,0.00,,,0.00,weatherlink.com 1.10,2013-01-03 11:01:00,
2013-01-03 06:16:00,33.2,33.0,30.02,SSE,155,0.0,0.0,97,0.00,,,0.00,weatherlink.com 1.10,2013-01-03 11:16:00,
2013-01-03 06:31:00,33.0,32.0,30.02,SSE,155,0.0,0.0,97,0.00,,,0.00,weatherlink.com 1.10,2013-01-03 11:31:00,
2013-01-03 06:46:00,33.3,33.0,30.03,SSE,155,0.0,0.0,97,0.00,,,0.00,weatherlink.com 1.10,2013-01-03 11:46:00,
2013-01-03 07:01:00,32.8,32.0,30.03,SSE,155,0.0,0.0,97,0.00,,,0.00,weatherlink.com 1.10,2013-01-03 12:01:00,
2013-01-03 07:16:00,32.8,32.0,30.03,SSE,155,0.0,0.0,97,0.01,,,0.01,weatherlink.com 1.10,2013-01-03 12:16:00,
2013-01-03 07:31:00,32.4,32.0,30.04,SSE,155,0.0,0.0,97,0.01,,,0.01,weatherlink.com 1.10,2013-01-03 12:31:00,
2013-01-03 07:46:00,32.1,31.0,30.04,SSE,155,0.0,0.0,97,0.01,,,0.01,weatherlink.com 1.10,2013-01-03 12:46:00,
2013-01-03 08:01:00,32.2,32.0,30.04,SSE,155,0.0,0.0,97,0.01,,,0.01,weatherlink.com 1.10,2013-01-03 13:01:00,
2013-01-03 08:16:00,32.3,32.0,30.04,SSE,155,0.0,0.0,97,0.00,,,0.01,weatherlink.com 1.10,2013-01-03 13:16:00,
2013-01-03 08:31:00,32.5,32.0,30.04,SSE,155,0.0,0.0,97,0.00,,,0.01,weatherlink.com 1.10,2013-01-03 13:31:00,
2013-01-03 08:46:00,32.7,32.0,30.05,SSE,155,0.0,0.0,97,0.00,,,0.01,weatherlink.com 1.10,2013-01-03 13:46:00,
2013-01-03 09:01:00,32.9,32.0,30.05,SSE,155,0.0,0.0,97,0.00,,,0.01,weatherlink.com 1.10,2013-01-03 14:01:00,
2013-01-03 09:16:00,33.2,33.0,30.05,SSE,155,0.0,0.0,97,0.00,,,0.01,weatherlink.com 1.10,2013-01-03 14:16:00,
2013-01-03 09:31:00,33.8,33.0,30.06,SSE,155,0.0,0.0,97,0.00,,,0.01,weatherlink.com 1.10,2013-01-03 14:31:00,
2013-01-03 09:46:00,33.9,33.0,30.06,SSE,155,0.0,0.0,97,0.00,,,0.01,weatherlink.com 1.10,2013-01-03 14:46:00,
2013-01-03 10:01:00,33.6,33.0,30.07,SSE,155,0.0,0.0,97,0.00,,,0.01,weatherlink.com 1.10,2013-01-03 15:01:00,
2013-01-03 10:16:00,34.0,33.0,30.06,SSE,155,0.0,0.0,97,0.00,,,0.01,weatherlink.com 1.10,2013-01-03 15:16:00,
2013-01-03 10:31:00,33.6,33.0,30.06,SSE,155,0.0,0.0,97,0.00,,,0.01,weatherlink.com 1.10,2013-01-03 15:31:00,
2013-01-03 10:46:00,34.0,33.0,30.06,SSE,155,0.0,0.0,97,0.00,,,0.01,weatherlink.com 1.10,2013-01-03 15:46:00,
2013-01-03 11:01:00,34.0,33.0,30.07,SSE,155,0.0,0.0,97,0.00,,,0.01,weatherlink.com 1.10,2013-01-03 16:01:00,
2013-01-03 11:16:00,35.1,34.0,30.06,SSE,155,0.0,0.0,97,0.00,,,0.01,weatherlink.com 1.10,2013-01-03 16:16:00,
2013-01-03 11:31:00,35.3,35.0,30.06,SSE,155,0.0,0.0,97,0.00,,,0.01,weatherlink.com 1.10,2013-01-03 16:31:00,
2013-01-03 11:46:00,34.8,34.0,30.05,SSE,155,0.0,0.0,97,0.00,,,0.01,weatherlink.com 1.10,2013-01-03 16:46:00,
2013-01-03 12:01:00,34.9,34.0,30.05,SSE,155,0.0,0.0,97,0.00,,,0.01,weatherlink.com 1.10,2013-01-03 17:01:00,
2013-01-03 12:16:00,35.5,35.0,30.04,SSE,155,0.0,0.0,97,0.00,,,0.01,weatherlink.com 1.10,2013-01-03 17:16:00,
2013-01-03 12:31:00,35.7,35.0,30.04,SSE,155,0.0,0.0,97,0.00,,,0.01,weatherlink.com 1.10,2013-01-03 17:31:00,
2013-01-03 12:46:00,36.8,36.0,30.04,SSE,155,0.0,3.0,97,0.00,,,0.01,weatherlink.com 1.10,2013-01-03 17:46:00,
2013-01-03 13:01:00,37.7,37.0,30.03,SSE,155,0.0,2.0,97,0.00,,,0.01,weatherlink.com 1.10,2013-01-03 18:01:00,
2013-01-03 13:16:00,37.6,37.0,30.03,SSE,155,0.0,2.0,97,0.00,,,0.01,weatherlink.com 1.10,2013-01-03 18:16:00,
2013-01-03 13:31:00,37.1,36.0,30.03,SSE,155,0.0,1.0,96,0.00,,,0.01,weatherlink.com 1.10,2013-01-03 18:31:00,
2013-01-03 13:46:00,35.8,34.0,30.02,SSE,156,1.0,8.0,93,0.00,,,0.01,weatherlink.com 1.10,2013-01-03 18:46:00,
2013-01-03 14:01:00,36.0,34.0,30.03,SSE,155,5.0,8.0,91,0.00,,,0.01,weatherlink.com 1.10,2013-01-03 19:01:00,
2013-01-03 14:16:00,36.3,34.0,30.03,SSE,156,1.0,8.0,91,0.00,,,0.01,weatherlink.com 1.10,2013-01-03 19:16:00,
2013-01-03 15:01:00,35.7,30.0,30.03,SSE,157,2.0,7.0,81,0.00,,,0.01,weatherlink.com 1.10,2013-01-03 20:01:00,
2013-01-03 15:16:00,35.8,30.0,30.03,SSE,156,1.0,8.0,78,0.00,,,0.01,weatherlink.com 1.10,2013-01-03 20:16:00,
2013-01-03 15:32:00,35.5,30.0,30.04,SSE,158,3.0,7.0,79,0.00,,,0.01,weatherlink.com 1.10,2013-01-03 20:32:00,
2013-01-03 15:47:00,35.5,30.0,30.05,SSE,157,4.0,9.0,79,0.00,,,0.01,weatherlink.com 1.10,2013-01-03 20:47:00,
2013-01-03 16:03:00,35.3,29.0,30.06,SSE,157,4.0,9.0,77,0.00,,,0.01,weatherlink.com 1.10,2013-01-03 21:03:00,
2013-01-03 16:17:00,34.9,29.0,30.06,SSE,157,0.0,7.0,78,0.00,,,0.01,weatherlink.com 1.10,2013-01-03 21:17:00,
2013-01-03 16:32:00,34.6,28.0,30.07,SSE,150,9.0,12.0,78,0.00,,,0.01,weatherlink.com 1.10,2013-01-03 21:32:00,
2013-01-03 16:47:00,34.0,28.0,30.07,SSE,155,2.0,10.0,80,0.00,,,0.01,weatherlink.com 1.10,2013-01-03 21:47:00,
2013-01-03 17:02:00,33.6,28.0,30.07,SSE,156,4.0,9.0,80,0.00,,,0.01,weatherlink.com 1.10,2013-01-03 22:02:00,
2013-01-03 17:17:00,32.6,27.0,30.07,SSE,157,0.0,9.0,81,0.00,,,0.01,weatherlink.com 1.10,2013-01-03 22:17:00,
2013-01-03 17:32:00,31.7,27.0,30.07,SSE,155,1.0,7.0,82,0.00,,,0.01,weatherlink.com 1.10,2013-01-03 22:32:00,
2013-01-03 17:47:00,31.1,27.0,30.08,SSE,155,2.0,9.0,83,0.00,,,0.01,weatherlink.com 1.10,2013-01-03 22:47:00,
2013-01-03 18:02:00,30.7,26.0,30.08,SSE,155,1.0,7.0,84,0.00,,,0.01,weatherlink.com 1.10,2013-01-03 23:02:00,
2013-01-03 18:17:00,30.2,26.0,30.09,SSE,153,2.0,7.0,83,0.00,,,0.01,weatherlink.com 1.10,2013-01-03 23:17:00,
2013-01-03 18:32:00,30.0,25.0,30.10,SSE,159,4.0,7.0,83,0.00,,,0.01,weatherlink.com 1.10,2013-01-03 23:32:00,
2013-01-03 18:47:00,29.8,25.0,30.11,SSE,155,2.0,9.0,82,0.00,,,0.01,weatherlink.com 1.10,2013-01-03 23:47:00,
2013-01-03 19:02:00,29.7,25.0,30.11,SSE,155,0.0,7.0,82,0.00,,,0.01,weatherlink.com 1.10,2013-01-04 00:02:00,
2013-01-03 19:17:00,29.5,25.0,30.11,SSE,160,0.0,8.0,82,0.00,,,0.01,weatherlink.com 1.10,2013-01-04 00:17:00,
2013-01-03 19:32:00,29.2,24.0,30.11,SSE,159,1.0,5.0,82,0.00,,,0.01,weatherlink.com 1.10,2013-01-04 00:32:00,
2013-01-03 19:47:00,29.1,24.0,30.11,SSE,159,1.0,9.0,82,0.00,,,0.01,weatherlink.com 1.10,2013-01-04 00:47:00,
2013-01-03 20:02:00,29.1,24.0,30.11,SSE,155,0.0,7.0,80,0.00,,,0.01,weatherlink.com 1.10,2013-01-04 01:02:00,
2013-01-03 20:17:00,29.0,24.0,30.11,SSE,158,0.0,5.0,80,0.00,,,0.01,weatherlink.com 1.10,2013-01-04 01:17:00,
2013-01-03 20:32:00,29.1,23.0,30.12,SSE,160,1.0,9.0,78,0.00,,,0.01,weatherlink.com 1.10,2013-01-04 01:32:00,
2013-01-03 20:47:00,29.0,23.0,30.11,SSE,155,6.0,9.0,79,0.00,,,0.01,weatherlink.com 1.10,2013-01-04 01:47:00,
2013-01-03 21:02:00,29.0,23.0,30.12,SSE,155,5.0,10.0,78,0.00,,,0.01,weatherlink.com 1.10,2013-01-04 02:02:00,
2013-01-03 21:17:00,28.9,23.0,30.12,SSE,158,0.0,8.0,79,0.00,,,0.01,weatherlink.com 1.10,2013-01-04 02:17:00,
2013-01-03 21:32:00,28.8,22.0,30.12,SSE,158,0.0,10.0,77,0.00,,,0.01,weatherlink.com 1.10,2013-01-04 02:32:00,
2013-01-03 21:47:00,28.7,23.0,30.12,SSE,155,0.0,7.0,78,0.00,,,0.01,weatherlink.com 1.10,2013-01-04 02:47:00,
2013-01-03 22:02:00,28.5,22.0,30.12,SSE,158,0.0,12.0,78,0.00,,,0.01,weatherlink.com 1.10,2013-01-04 03:02:00,
2013-01-03 22:17:00,28.7,22.0,30.12,SSE,156,0.0,13.0,77,0.00,,,0.01,weatherlink.com 1.10,2013-01-04 03:17:00,
2013-01-03 22:32:00,28.6,22.0,30.12,SSE,155,1.0,11.0,77,0.00,,,0.01,weatherlink.com 1.10,2013-01-04 03:32:00,
2013-01-03 22:48:00,28.3,23.0,30.12,SSE,162,1.0,8.0,79,0.00,,,0.01,weatherlink.com 1.10,2013-01-04 03:48:00,
2013-01-03 23:03:00,28.2,22.0,30.12,SSE,162,0.0,8.0,78,0.00,,,0.01,weatherlink.com 1.10,2013-01-04 04:03:00,
2013-01-03 23:18:00,28.4,21.0,30.12,SSE,156,0.0,8.0,75,0.00,,,0.01,weatherlink.com 1.10,2013-01-04 04:18:00,
2013-01-03 23:33:00,28.3,22.0,30.13,SSE,158,5.0,8.0,76,0.00,,,0.01,weatherlink.com 1.10,2013-01-04 04:33:00,
2013-01-03 23:48:00,28.4,21.0,30.13,SSE,160,0.0,9.0,75,0.00,,,0.01,weatherlink.com 1.10,2013-01-04 04:48:00,